Location: Wald
(31.7579°N, 86.6655°W)
Time: 20:40:36
(UTC+00:00)

Cosmos 1242 Rocket - Pass Details

Date: 14 July 2020
Orbit: 448 x 487 km, 81.2° (Epoch: 13 August)

Event Time Altitude Azimuth Distance (km) Brightness Sun altitude
Rises 09:36:42 0° 336° (NNW) 2,459 6.3 -14.4°
Reaches altitude 10° 09:39:02 10° 321° (NW) 1,587 5.2 -14.0°
Maximum altitude 09:41:49 23° 268° (W) 1,010 3.7 -13.5°
Enters shadow 09:42:17 22° 255° (WSW) 1,031 3.7 -13.4°
